TimeEDT,TemperatureF,Dew PointF,Humidity,Sea Level PressureIn,VisibilityMPH,Wind Direction,Wind SpeedMPH,Gust SpeedMPH,PrecipitationIn,Events,Conditions,WindDirDegrees,DateUTC
12:54 AM,39.0,21.0,49,29.96,10.0,SSW,6.9,-,N/A,,Clear,210,2013-04-05 04:54:00
1:54 AM,39.0,19.9,46,29.93,10.0,SSW,6.9,-,N/A,,Clear,200,2013-04-05 05:54:00
2:54 AM,37.0,18.0,46,29.91,10.0,SSW,6.9,-,N/A,,Clear,210,2013-04-05 06:54:00
3:54 AM,35.1,19.0,52,29.89,10.0,Calm,Calm,-,N/A,,Clear,0,2013-04-05 07:54:00
4:54 AM,36.0,19.0,50,29.88,10.0,SW,6.9,-,N/A,,Clear,220,2013-04-05 08:54:00
5:54 AM,34.0,19.0,54,29.87,10.0,Variable,4.6,-,N/A,,Clear,0,2013-04-05 09:54:00
6:54 AM,35.1,19.0,52,29.86,10.0,WSW,9.2,-,N/A,,Clear,240,2013-04-05 10:54:00
8:54 AM,37.9,19.9,48,29.84,10.0,SW,5.8,-,N/A,,Clear,230,2013-04-05 12:54:00
9:54 AM,43.0,17.1,35,29.83,10.0,West,6.9,-,N/A,,Clear,260,2013-04-05 13:54:00
10:54 AM,46.0,12.9,26,29.80,10.0,West,4.6,-,N/A,,Clear,260,2013-04-05 14:54:00
11:54 AM,50.0,15.1,25,29.77,10.0,West,12.7,-,N/A,,Clear,280,2013-04-05 15:54:00
12:54 PM,50.0,19.0,29,29.75,10.0,West,13.8,20.7,N/A,,Scattered Clouds,280,2013-04-05 16:54:00
1:54 PM,51.1,21.9,32,29.73,10.0,West,19.6,26.5,N/A,,Partly Cloudy,280,2013-04-05 17:54:00
2:54 PM,51.1,23.0,33,29.71,10.0,NW,11.5,27.6,N/A,,Clear,310,2013-04-05 18:54:00
3:35 PM,50.0,19.4,30,29.72,7.0,West,21.9,34.5,N/A,,Partly Cloudy,280,2013-04-05 19:35:00
3:54 PM,48.9,19.9,32,29.72,10.0,WNW,17.3,31.1,N/A,,Clear,290,2013-04-05 19:54:00
4:54 PM,46.9,18.0,32,29.74,10.0,West,23.0,31.1,N/A,,Clear,280,2013-04-05 20:54:00
5:54 PM,44.1,19.9,38,29.77,10.0,WNW,17.3,28.8,N/A,,Clear,290,2013-04-05 21:54:00
6:54 PM,41.0,19.9,43,29.82,10.0,WNW,19.6,27.6,N/A,,Clear,290,2013-04-05 22:54:00
7:54 PM,37.9,21.0,51,29.85,10.0,WNW,15.0,25.3,N/A,,Clear,300,2013-04-05 23:54:00
8:54 PM,35.1,24.1,64,29.89,10.0,WNW,19.6,26.5,N/A,,Partly Cloudy,290,2013-04-06 00:54:00
9:54 PM,34.0,24.1,67,29.91,10.0,WNW,15.0,33.4,N/A,,Mostly Cloudy,290,2013-04-06 01:54:00
10:33 PM,33.8,24.8,70,29.90,10.0,WNW,15.0,21.9,N/A,,Overcast,290,2013-04-06 02:33:00
10:54 PM,33.1,25.0,72,29.91,10.0,WNW,16.1,25.3,N/A,,Mostly Cloudy,290,2013-04-06 02:54:00
11:17 PM,32.0,24.8,75,29.90,10.0,WNW,16.1,29.9,N/A,,Mostly Cloudy,300,2013-04-06 03:17:00
11:42 PM,32.0,24.8,75,29.90,10.0,WNW,16.1,27.6,N/A,,Mostly Cloudy,300,2013-04-06 03:42:00
11:54 PM,32.0,24.1,73,29.91,10.0,WNW,15.0,24.2,N/A,,Overcast,290,2013-04-06 03:54:00